Regional Weather Roundup
Issued by NWS

Home | Current Version | Previous Version | Text Only | Print | Product List | Glossary On
Versions: 1 2 3 4 5 6 7 8 9 10 11 12 13 14 15 16 17 18 19 20 21 22 23 24 25 26 27 28 29 30 31 32 33 34 35 36 37 38 39 40 41 42 43 44 45 46 47 48 49 50
000
ASUS42 KTBW 182117
RWRFL
FLORIDA REGIONAL WEATHER ROUNDUP
NATIONAL WEATHER SERVICE TAMPA BAY RUSKIN FL
500 PM EDT SUN APR 18 2021

NOTE: "FAIR" INDICATES FEW OR NO CLOUDS BELOW 12,000 FEET WITH NO
SIGNIFICANT WEATHER AND/OR OBSTRUCTIONS TO VISIBILITY.

FLZ001>010-012>015-112-114-115-182200-
PANHANDLE FLORIDA

CITY           SKY/WX    TMP DP  RH WIND       PRES   REMARKS
PENSACOLA      CLOUDY    75  54  47 NW7       29.87F
PENSACOLA NAS  CLOUDY    73  52  47 N5        29.87F
CRESTVIEW      CLOUDY    74  52  46 NW10      29.88F
DUKE FIELD     FAIR      73  53  49 CALM      29.86F
VALPARAISO     CLOUDY    73  53  49 NW7       29.87S
MARY ESTHER    CLOUDY    74  54  49 N3        29.86F
PANAMA CITY    CLOUDY    72  56  57 CALM      29.86S
TYNDALL AFB    CLOUDY    66  60  81 SW5       29.87R
APALACHICOLA   LGT RAIN  68  66  93 CALM      29.87S

STATION/POSITION SKY/WX   TEMP    WIND        PRES    WAVE   SWELL
                          AIR SEA DIR/SP/G            HT/PER HT/PER
                          (F)     (DEG/KT/KT) (MB)    (FT/S) (FT/S)
30.1N   87.6W              66 69  250/  6/  8 1010.9F   1/ 8   2/ 8
29.2N   88.2W              66 73   20/  8/ 12 1012.9F   2/ 4   2/ 7
28.8N   86.0W              69 72   20/ 12/ 14 1011.8F   3/ 7   2/ 7
PANAMA CITY BEAC           67 70  230/  9/ 10 1012.2R
TOWER C                    66      10/  4/  6 1011.8F
28.5N   84.5W              69 72   10/ 10/ 16 1009.6R   3/ 6   2/ 6

$$
FLZ011-016>038-118-127-128-134-139-239-182200-
NORTH FLORIDA

CITY           SKY/WX    TMP DP  RH WIND       PRES   REMARKS
MARIANNA       PTSUNNY   74  52  46 NW6       29.85F
TALLAHASSEE    LGT RAIN  66  64  93 S6        29.87S
LIVE OAK       PTSUNNY   66  66 100 CALM      29.88S FOG
CROSS CITY     LGT RAIN  71  69  91 NW9       29.88R
LAKE CITY      CLOUDY    66  64  94 CALM      29.88S
GAINESVILLE    CLOUDY    75  65  70 NW3       29.88F
WILLISTON      RAIN      76  70  84 SW3       29.86F
PALATKA        CLOUDY    72  64  78 W5        29.86S
MAYPORT NAS    CLOUDY    72  66  81 W15       29.88R
JACKSONVILLE   LGT RAIN  67  66  97 SW5       29.88F FOG
JAX NAS        CLOUDY    72  65  78 NW9       29.89R
JAX CECIL      LGT RAIN  70  66  88 NW6       29.88
FERNANDINA BEA TSTM      68 N/A N/A SW9       29.86S FOG
ST AUGUSTINE   CLOUDY    75  66  73 N6        29.88R
PALM COAST     CLOUDY    79  66  65 VRB6      29.86F

STATION/POSITION SKY/WX   TEMP    WIND        PRES    WAVE   SWELL
                          AIR SEA DIR/SP/G            HT/PER HT/PER
                          (F)     (DEG/KT/KT) (MB)    (FT/S) (FT/S)
SHELL POINT      NOT AVBL
KEATON BEACH               66     310/  3/  6 1012.1F
CEDAR KEY                  74     150/  6/  7 1011.6F
FERNANDINA                 72 70  240/  5/ 11 1012.2R
30.7N   81.3W              68 68                N/A     2/12   2/12
MAYPORT                    71 69  260/  8/  9 1011.9R
31.4N   80.9W              67 67  200/ 10/ 12 1010.2F   1/11
ST AUGUSTINE               70 68   90/  3/  4 1011.8R

$$
FLZ040-043>046-052-053-057-058-063-144-182200-
INTERIOR CENTRAL FLORIDA

CITY           SKY/WX    TMP DP  RH WIND       PRES   REMARKS
OCALA          CLOUDY    79  69  71 SW7       29.86F
LEESBURG       PTSUNNY   77  66  68 CALM      29.86F
SANFORD        PTSUNNY   81  67  62 VRB3      29.85F
ORLANDO EXEC   PTSUNNY   83  68  60 MISG      29.85F
ORLANDO INTL   LGT RAIN  81  69  67 E7        29.84F
KISSIMMEE      PTSUNNY   82  72  71 E5        29.86F
WINTER HAVEN   PTSUNNY   86  67  52 W12       29.85F
LAKELAND       PTSUNNY   84  68  58 SW12G18   29.85F
BARTOW         MOSUNNY   88  68  51 SW15G22   29.85F
SEBRING        FAIR      90  64  42 S14       29.85S
OKEECHOBEE     MOSUNNY   86  70  58 S8        29.85S

$$
FLZ041-047-054-059-064-141-147-182200-
EAST CENTRAL FLORIDA

CITY           SKY/WX    TMP DP  RH WIND       PRES   REMARKS
ORMOND BEACH   MOSUNNY   77  66  69 CALM      29.86F
DAYTONA BEACH  CLOUDY    77  65  66 VRB5      29.86F
DELAND         CLOUDY    79  67  65 CALM      29.87S
NEW SMYRNA BEA MOSUNNY   75  64  69 SE8       29.86F
JFK SPACE CTR  MOSUNNY   78  67  66 E6        29.85F
TITUSVILLE     MOSUNNY   84  66  54 E12       29.86F
CAPE CANAVERAL MOSUNNY   76  67  71 E7        29.85F
PATRICK AFB    MOSUNNY   78  66  67 NE13      29.84F
MELBOURNE      MOSUNNY   78  71  79 NE12      29.84F
VERO BEACH     MOSUNNY   89  67  47 SW13      29.84F
FT PIERCE      MOSUNNY   90  64  42 SW14      29.85S
STUART         PTSUNNY   91  63  38 W12       29.87F

STATION/POSITION SKY/WX   TEMP    WIND        PRES    WAVE   SWELL
                          AIR SEA DIR/SP/G            HT/PER HT/PER
                          (F)     (DEG/KT/KT) (MB)    (FT/S) (FT/S)
28.5N   80.2W                 76              1010.6F   2/12   2/12
28.9N   78.5W              73      70/  8/ 10 1012.6F   2/11   2/11
TRIDENT PIER               76 75   70/ 10/ 14 1012.2F
28.4N   80.5W                 75                N/A     2/12
27.5N   80.2W                 77                N/A     2/11   2/11

$$
FLZ050-056-061-142-242-148-248-149-249-151-251-155-255-
160-260-182200-
WEST CENTRAL FLORIDA

CITY           SKY/WX    TMP DP  RH WIND       PRES   REMARKS
CRYSTAL RIVER  PTSUNNY   77  70  78 SW3       29.85F
INVERNESS      FAIR      81  73  78 W3        29.85F HAZE
BROOKSVILLE    PTSUNNY   81  70  69 S8        29.85F
CLEARWATER AIR PTSUNNY   79  70  73 S10G17    29.85S
ST PETE CLEARW CLOUDY    83  71  67 S16       29.85F
TAMPA INTL     CLOUDY    82  72  71 S14       29.85F
TAMPA EXEC     PTSUNNY   86  72  62 SW14      29.85F
PLANT CITY     PTSUNNY   86  70  58 SW14      29.86F
MACDILL AFB    CLOUDY    81  74  79 SW16      29.83F
PETER O KNIGHT CLOUDY    82  73  74 SW14      29.85F
ST PETERSBURG  CLOUDY    81  72  74 S12G24    29.83F
SARASOTA       PTSUNNY   81  73  76 S14       29.84F
VENICE         FAIR      81  75  83 S13G24    29.87F

STATION/POSITION SKY/WX   TEMP    WIND        PRES    WAVE   SWELL
                          AIR SEA DIR/SP/G            HT/PER HT/PER
                          (F)     (DEG/KT/KT) (MB)    (FT/S) (FT/S)
27.3N   84.3W                 74                N/A     3/ 6
CLEARWATER BEACH           79 82  180/ 16/ 19 1010.8F
MIDDLE TAMPA BAY           79     210/ 17/ 19   N/A
VENICE                     78 81  180/ 17/ 19 1011.5F

$$
FLZ066-069-070-075>078-162-262-165-265-182200-
SOUTHWEST FLORIDA AND KEYS

CITY           SKY/WX    TMP DP  RH WIND       PRES   REMARKS
PUNTA GORDA    MOSUNNY   87  68  52 SW16G23   29.88F
FT MYERS       MOSUNNY   86  70  58 SW14      29.87F
SOUTHWEST INTL SUNNY     86  67  52 SW14      29.87F
NAPLES         SUNNY     84  73  69 SW12      29.88F
MARCO ISLAND   PTSUNNY   85  72  65 S9        29.89F
IMMOKALEE      FAIR      88  66  48 SW8       29.86F
MARATHON       SUNNY     84  74  71 SE6       29.90F
KEY WEST NAS   PTSUNNY   84  75  74 SE12      29.89F
KEY WEST INTL  SUNNY     84  74  71 SE9       29.90F

STATION/POSITION SKY/WX   TEMP    WIND        PRES    WAVE   SWELL
                          AIR SEA DIR/SP/G            HT/PER HT/PER
                          (F)     (DEG/KT/KT) (MB)    (FT/S) (FT/S)
NAPLES                     85 83  210/ 10/ 11 1012.8F
26.0N   85.6W              79 78              1011.0S   4/ 6   3/ 6
DRY TORTUGAS     NOT AVBL
SAND KEY                   79      80/  6/  7 1012.7F
SOMBRERO KEY               79     110/  5/  6 1012.9F
LONG KEY                   80                 1013.1F

$$
FLZ067-068-071>074-168-172>174-182200-
SOUTHEAST FLORIDA

CITY           SKY/WX    TMP DP  RH WIND       PRES   REMARKS
W PALM BEACH   MOSUNNY   85  71  63 SE20      29.87F
BOCA RATON     MOSUNNY   86  72  62 S13G25    29.88F
FT LAUDER-EXEC MOSUNNY   85  72  65 SE13      29.87F
FT LAUDERDALE  MOSUNNY   87  73  62 S17       29.87F
POMPANO BEACH  MOSUNNY   83  71  67 S16G25    29.88F
PEMBROKE PINES MOSUNNY   87  71  58 SE13      29.88F
OPA LOCKA      MOSUNNY   88  72  58 SE16      29.88F
MIAMI          PTSUNNY   87  73  62 S12G21    29.88F
WEST KENDALL   MOSUNNY   89  69  51 S12       29.88F
HOMESTEAD      MOSUNNY   88  71  56 S9        29.89S

STATION/POSITION SKY/WX   TEMP    WIND        PRES    WAVE   SWELL
                          AIR SEA DIR/SP/G            HT/PER HT/PER
                          (F)     (DEG/KT/KT) (MB)    (FT/S) (FT/S)
VIRGINIA KEY               82 84  170/ 15/ 19 1012.8F
LAKE WORTH                 79 79  170/ 16/ 18 1011.5F
FOWEY ROCKS                80 77  180/ 21/ 22 1012.7F
SETTLEMENT POINT           80     180/ 13/ 15 1012.9F

$$




USA.gov is the U.S. government's official web portal to all federal, state and local government web resources and services.